Other Public Products
Issued by NWS Grand Forks, ND

Home | Current Version | Previous Version | Graphics & Text | Print | Product List | Glossary On
Versions: 1 2 3 4 5 6 7 8 9 10 11 12 13 14 15 16 17 18 19 20 21 22 23 24 25 26 27 28 29 30 31 32 33 34 35 36 37 38 39 40 41 42 43 44 45 46 47 48 49 50
000
FPUS83 KFGF 260931
OPUFGF
PRAIRIE TO PINES WEATHER ROUNDUP
NATIONAL WEATHER SERVICE EASTERN NORTH DAKOTA/GRAND FORKS ND
400 AM CDT TUE MAY 26 2015

 **SATELLITE DATA USED TO AUGMENT SKY COVER AT AUTOMATED STATIONS**
 *****  WEATHER ACROSS EASTERN NORTH DAKOTA  *****

CITY           SKY/WX    TMP DP  RH WIND       PRES   REMARKS
GRAND FORKS    CLEAR     54  49  83 S8        29.80F
GRAND FORKS AF CLEAR     57  50  79 SW7       29.80F
GRAND CITY NWS   N/A     52 N/A N/A S7          N/A
BUXTON           N/A     54  53  95 S6          N/A
DEVILS LAKE    PTCLDY    55  46  71 W8        29.80S
FARGO          MOCLDY    50  48  93 S6        29.85F
WAHPETON ARPT  SUNNY     50  46  87 N7        29.86S
$$

 *****  WEATHER ACROSS CENTRAL AND WESTERN NORTH DAKOTA  *****

CITY           SKY/WX    TMP DP  RH WIND       PRES   REMARKS
JAMESTOWN      PTCLDY    53  51  93 S3        29.83F
BISMARCK       PTCLDY    52  50  93 W7        29.90F
MINOT          CLEAR     59  46  62 W13       29.86R
MINOT AFB      CLEAR     55  52  89 W9        29.85R
GARRISON         N/A     52  47  83 W9        29.89S
WILLISTON      CLEAR     48  46  93 SW5       29.92R
DICKINSON      CLEAR     46  43  89 W7        29.92S
HETTINGER      FOG       41  40  96 CALM      29.96S VSB 1/4
$$

 *****  OTHER OBSERVATIONS NORTHEAST NORTH DAKOTA  *****

CITY           SKY/WX    TMP DP  RH WIND       PRES   REMARKS
WALHALLA         N/A     55  55 100 CALM      29.77F
LANGDON        FAIR      55  54  94 SW6       29.80F
CAVALIER       FAIR      55  54  94 S8        29.78S
GRAFTON        FAIR      52  52 100 S8        29.79F
CANDO          PTSUNNY   59  48  67 W12       29.81S
FORT TOTTEN      N/A     57  45  65 SW2       29.95S
ROLLA          CLOUDY    61  41  48 W13       29.83S
RUGBY          NOT AVBL
 ***** THE ABOVE OBSERVATIONS ARE NON NWS ARE NOT QUALITY
        CONTROLLED AND MAY MIS-REPORT RAIN FOR SNOW...
$$

 *****  OTHER OBSERVATIONS SOUTHEAST NORTH DAKOTA *****

CITY           SKY/WX    TMP DP  RH WIND       PRES   REMARKS
COOPERSTOWN    NOT AVBL
VALLEY CITY    FAIR      50  50 100 SW10      29.84F
OAKES            N/A     54  54 100 SW7       29.88S
GWINNER        NOT AVBL
BUFFALO        NOT AVBL
WYNDMERE         N/A     50  52 100 NW5         N/A
 ***** THE ABOVE OBSERVATIONS ARE NON NWS ARE NOT QUALITY
       CONTROLLED AND MAY MIS-REPORT RAIN FOR SNOW...
$$

  *****  WEATHER ACROSS NORTHERN MINNESOTA  *****

CITY           SKY/WX    TMP DP  RH WIND       PRES   REMARKS
FLAG ISLAND    CLEAR     54  52  94 S6        29.80S
WARROAD        CLEAR     54  48  82 SW7       29.82F
ROSEAU         CLEAR     55  48  76 SW7       29.82S
HALLOCK        CLEAR     55  48  76 S10       29.79F
THF RVR FALLS  CLEAR     52  46  82 S9        29.84S
HALSTAD          N/A     49  46  92 S8          N/A
FOSSTON        CLEAR     43  41  93 CALM      29.86S FOG
BAUDETTE       CLEAR     49  47  93 CALM      29.83F
WASKISH        PTCLDY    48  46  93 CALM      29.85S FOG
CROOKSTON      CLEAR     52  48  87 S8        29.83F
$$
  *****  WEATHER ACROSS CENTRAL AND WEST MINNESOTA  *****

CITY           SKY/WX    TMP DP  RH WIND       PRES   REMARKS
BEMIDJI        FOG       46  46 100 CALM      29.86R VSB 1/2
PARK RAPIDS    PTCLDY    49  47  93 N6        29.85S FOG
WADENA         PTCLDY    50  48  93 N7        29.84S
DETROIT LAKES  CLEAR     50  50 100 N6        29.88S
MOORHEAD       PTCLDY    50  48  93 CALM      29.87S
FERGUS FALLS   PTCLDY    52  52 100 N8        29.86S
ELBOW LAKE     FAIR      54  51  89 N10       29.84S
MORRIS MN      MOCLDY    52  50  93 N3        29.84R
STAPLES        MOCLDY    50  48  93 CALM      29.83R
WHEATON        PTCLDY    50  48  93 NW6       29.87R
$$
  *****  WEATHER ELSEWHERE ACROSS MINNESOTA  *****

CITY           SKY/WX    TMP DP  RH WIND       PRES   REMARKS
DULUTH         DRIZZLE   54  52  93 E7        29.81S FOG
INTRNTL FALLS  MOCLDY    47  45  93 CALM      29.84F
ELY            CLOUDY    52  50  93 CALM      29.84S
CLOQUET        CLOUDY    54  52  94 E3        29.81F FOG
BRAINERD       CLOUDY    54  52  93 NE7       29.82S
HIBBING        MOCLDY    52  49  89 CALM      29.83R
ALEXANDRIA     MOCLDY    53  50  89 NE7       29.84R
SAINT CLOUD    CLOUDY    55  54  96 N5        29.80R
MINNEAPOLIS    MOCLDY    60  57  89 SW3       29.79S
$$

  *****  WEATHER ACROSS SOUTH DAKOTA  *****

CITY           SKY/WX    TMP DP  RH WIND       PRES   REMARKS
SIOUX FALLS    CLOUDY    55  53  93 N9        29.81R
BROOKINGS      CLOUDY    52  48  87 N5        29.85R
WATERTOWN      MOCLDY    50  48  93 N10       29.84R
HURON          PTCLDY    52  49  89 N9        29.86R
SISSETON         N/A     50  49  96 N9        29.85S
ABERDEEN       PTCLDY    49  47  93 CALM      29.88S
MITCHELL       MOCLDY    53  50  89 N9        29.84S
PIERRE         MOCLDY    52  50  93 N9        29.90S
MOBRIDGE       CLOUDY    54  54 100 CALM      29.90S
RAPID CITY     CLOUDY    52  51  97 NE3       29.95S
$$

  *****  SOME WEATHER IN NEARBY STATES *****

CITY           SKY/WX    TMP DP  RH WIND       PRES   REMARKS
GLASGOW MT     CLEAR     52  45  77 E10       29.89S
GREAT FALLS MT CLOUDY    50  49  96 W3        29.91F
CHEYENNE WY    PTCLDY    43  38  82 W7        30.01F
SCOTTSBLUFF NE CLOUDY    46  46 100 NW3       29.96S FOG
OMAHA NE       LGT RAIN  64  57  78 S16       29.78S
DES MOINES IA  RAIN      62  59  90 W5        29.81F FOG
DAVENPORT IA   MOCLDY    69  65  86 S14       29.85F
CHICAGO IL     PTCLDY    67  64  90 S9        29.92S
EAU CLAIRE WI  MOCLDY    56  56 100 N3        29.76F FOG
LA CROSSE WI   CLOUDY    64  59  83 S8        29.77S
$$

  *****  SOME NATIONAL WEATHER *****

CITY           SKY/WX    TMP DP  RH WIND       PRES   REMARKS
LA GUARDIA NY  PTCLDY    67  53  61 SW10      30.19R
RALEIGH NC     MOCLDY    67  63  87 S5        30.26F
ATLANTA GA     CLOUDY    71  68  90 SE7       30.20S
NEW ORLEANS LA TSTM      66  63  90 NW29G45   30.10R FOG
OKLAHOMA CITY  PTCLDY    54  53  97 N6        29.89R
ALBUQUERQUE NM CLEAR     52  47  83 W5        30.08S
SALT LAKE CITY MOCLDY    57  45  64 SE8       29.97S
LOS ANGELES CA MOCLDY    60  55  83 W5        29.98F
BOISE ID       PTCLDY    52  49  89 S5        29.91R
SEATTLE WA     CLOUDY    54  49  83 W5        30.04R
$$

*** WEATHER ACROSS MANITOBA...SASKATCHEWAN AND ONTARIO ***
                ***ONTARIO***

CITY           SKY/WX    TMP DP  RH WIND       PRES   REMARKS
GERALDTON      LGT RAIN  52  52 100 CALM      29.81R
THUNDER BAY    LGT RAIN  54  54 100 SW5       29.80R
SIOUX LOOKOUT  MOCLDY    54  50  87 SW7       29.82S
TORONTO        PTCLDY    68  61  77 SW12      30.01S
BIG TROUT LK   CLEAR     46  43  87 N13G18    29.69R
PICKLE LAKE    NOT AVBL
DRYDEN         CLOUDY    54  50  87 SW8       29.82S
KENORA         NOT AVBL
$$
                *** MANITOBA***

CITY           SKY/WX    TMP DP  RH WIND       PRES   REMARKS
BRANDON        CLEAR     50  43  76 W10       29.79R
DAUPHIN        PTCLDY    63  43  48 SW12      29.74S
ISLAND LAKE    PTCLDY    55  45  67 NW12      29.68R
PILOT MOUND      N/A     59  45  58 W5          N/A
THE PAS        PTCLDY    50  39  66 N13G21    29.71R
THOMPSON       CLOUDY    36  32  87 NE12G23   29.87R
WINNIPEG       PTCLDY    55  48  76 S9        29.76R
LYNN LAKE      LGT SNOW  32  30  93 NE12G18   29.95S WCI  23
CHURCHILL      CLOUDY    25  19  80 N8        30.06S WCI  16
GILLAM         CLOUDY    28  27  93 NE15G24   29.92R WCI  17
$$
                ***SASKATCHEWAN***

CITY           SKY/WX    TMP DP  RH WIND       PRES   REMARKS
ESTEVAN        MOCLDY    54  46  76 SW8       29.88R
KINDERSLEY     PTCLDY    52  36  54 SW2       29.86S
LLOYDMINSTER   CLEAR     52  43  71 SW6       29.85S
PRINCE ALBERT  MOCLDY    52  48  87 W7        29.79S
REGINA         CLEAR     54  43  66 W9        29.85S
YORKTON        CLEAR     54  43  66 VRB2      29.79S



USA.gov is the U.S. government's official web portal to all federal, state and local government web resources and services.